Location: Clover
(42.5131°N, 114.6874°W)
Time: 14:44:22
(UTC+00:00)

Transit 2A Rocket - Pass Details

Date: 15 November 2024
Orbit: 585 x 904 km, 66.7° (Epoch: 02 December)

Event Time Altitude Azimuth Distance (km) Brightness Sun altitude
Rises 02:00:57 0° 320° (NW) 3,210 8.7 -19.2°
Reaches altitude 10° 02:03:40 10° 310° (NW) 2,223 8.0 -19.7°
Maximum altitude 02:07:59 30° 251° (WSW) 1,230 6.8 -20.5°
Drops below altitude 10° 02:11:59 10° 190° (S) 2,041 7.4 -21.2°
Sets 02:14:23 0° 180° (S) 2,903 8.1 -21.7°
